METAR Formatted Surface Weather Observation
Issued by NWS

Home | Current Version | Previous Version | Text Only | Print | Product List | Glossary On
Versions: 1 2 3 4 5 6 7 8 9 10 11 12 13 14 15 16 17 18 19 20 21 22 23 24 25 26 27 28 29 30 31 32 33
000
SAUS43 KMQT 251458
MTRP53
METAR KP53 251456Z AUTO 30008KT 21/14 A2992 RMK AO1 SLP130 T02060144
53005



USA.gov is the U.S. government's official web portal to all federal, state and local government web resources and services.